星链-32559 (STARLINK-32559)

导读 | 豆包AI

STARLINK-32559是美国SpaceX公司于2024年11月11日发射的星链低轨通信卫星,属于星链全球宽带互联网星座的组成部分。卫星采用平板设计、搭载Ku/Ka波段通信载荷,配备霍尔推进器,支持激光星间链路,可提供高速网络服务。作为新一代组网卫星,它将支撑星链的手机直连业务与全球覆盖能力,退役后会主动离轨坠入大气层销毁。

基本信息
目录编号:
61915
目录名称:
STARLINK-32559
国际标识:
2024-207D
轨道中心:
EARTH
卫星名称:
星链-32559
卫星全名:
星链-32559 (STARLINK-32559)
卫星状态:
在轨 (已飞行536 天)
发射日期:
2024-11-11 UTC
国别 :
美国 (US)
星等 :
--
轨道信息
数据来源 国际轨道数据
星历时间: 2026-04-30T16:05:56+0800
17小时前
查看轨道信息
半长轴: 6861.141km
偏心率: 0.0001268
轨道倾角: 43.006°
近地点辐角 289.121°
升交点赤经 349.829°
平近点角 70.951°
近地点: 482.134km
远地点: 483.874km
周期: 94.266分钟
每日圈数: 15.275951
详细信息
固有亮度:
5
最大亮度:
2.5
卫星平台:
Starlink V1.0
覆盖范围:
全球
运营商:
太空探索技术公司
运营商所在国:
美国
制造商(研发单位):
太空探索技术公司
制造商所在国:
美国
使用方式:
暂无
卫星简介
Starlink 计划是 SpaceX 推出的全球卫星互联网项目,通过发射低轨道卫星,为全球尤其是偏远地区提供高速、低延迟的互联网服务。自 2019 年起,Starlink 已部署数千颗卫星,旨在缩小全球数字鸿沟,推动互联网普及。该项目还为军事、航空等行业提供通信支持,带来广泛经济效益。
2D轨道图
3D轨道图
轨道高度分析图
轨道倾角分析图
轨道综合分析图
查看轨道综合分析图